Roda de Ter - l'Esquerda





Hora UTC 20:20
Temperatura 4.8 ºC
Humitat 84.0 %
Pressió 1004.6 hPa
Pluja 0.0 mm
Velocitat vent 1.6 km/h
Direcció vent SW

Dades diàries 2019-11-15



Hora UTC (hivern +1h; estiu +2h)
Temperatura (ºC) Humitat (%) Pressió (hPa) Velocitat vent (km/h) Precipitació (mm)
Hora UTC Aire Humitat Pressió Vel. Dir. Vel. Max Dir. Intent. màx 5 min.
00:05 2.2 90.0 999.8 0.0 S 0.0 0.0
00:10 2.3 89.0 999.7 0.0 S 3.2 0.0
00:15 2.2 89.0 999.8 0.0 S 3.2 0.0
00:20 2.2 89.0 999.9 0.0 S 0.0 0.0
00:25 2.2 90.0 1000.0 0.0 S 1.6 0.0
00:30 2.2 90.0 1000.0 0.0 S 1.6 0.0
00:35 2.3 90.0 999.9 0.0 S 1.6 0.0
00:40 2.2 90.0 999.9 1.6 ESE 3.2 0.0
00:45 2.2 90.0 999.9 0.0 ESE 3.2 0.0
00:50 2.1 90.0 1000.0 0.0 ESE 3.2 0.0
00:55 2.1 90.0 1000.1 0.0 ESE 3.2 0.0
01:00 1.7 90.0 999.9 0.0 ESE 1.6 0.0
01:05 1.6 90.0 999.9 0.0 ESE 1.6 0.0
01:10 1.4 90.0 1000.1 1.6 ESE 3.2 0.0
01:15 1.3 90.0 1000.0 0.0 ESE 3.2 0.0
01:20 1.2 90.0 1000.1 1.6 ESE 3.2 0.0
01:25 1.1 91.0 1000.3 0.0 ESE 1.6 0.0
01:30 1.2 91.0 1000.3 0.0 ESE 1.6 0.0
01:35 0.9 91.0 1000.4 0.0 ESE 1.6 0.0
01:40 0.9 91.0 1000.5 0.0 ESE 1.6 0.0
01:45 0.8 91.0 1000.5 1.6 ESE 3.2 0.0
01:50 0.9 91.0 1000.5 3.2 ESE 3.2 0.0
01:55 0.9 91.0 1000.5 0.0 ESE 3.2 0.0
02:00 0.9 91.0 1000.6 1.6 ESE 3.2 0.0
02:05 0.7 91.0 1000.5 0.0 ESE 1.6 0.0
02:10 0.7 91.0 1000.5 1.6 ESE 3.2 0.0
02:15 0.6 91.0 1000.5 0.0 ESE 3.2 0.0
02:20 0.7 91.0 1000.4 1.6 ESE 3.2 0.0
02:25 0.6 91.0 1000.4 0.0 ESE 3.2 0.0
02:30 0.4 91.0 1000.6 1.6 ESE 3.2 0.0
02:35 0.4 91.0 1000.6 0.0 ESE 3.2 0.0
02:40 0.5 92.0 1000.6 1.6 ESE 3.2 0.0
02:45 0.4 92.0 1000.5 0.0 ESE 3.2 0.0
02:50 0.2 91.0 1000.7 0.0 ESE 1.6 0.0
02:55 0.2 92.0 1000.6 0.0 ESE 1.6 0.0
03:00 0.3 92.0 1000.7 0.0 ESE 0.0 0.0
03:05 0.2 92.0 1000.7 1.6 ESE 1.6 0.0
03:10 0.1 92.0 1000.5 1.6 ESE 3.2 0.0
03:15 0.1 92.0 1000.6 0.0 ESE 3.2 0.0
03:20 0.3 92.0 1000.5 1.6 ESE 3.2 0.0
03:25 0.1 92.0 1000.6 1.6 ESE 3.2 0.0
03:30 -0.1 92.0 1000.5 0.0 ESE 3.2 0.0
03:35 -0.1 92.0 1000.5 0.0 ESE 3.2 0.0
03:40 0.1 92.0 1000.6 1.6 ESE 1.6 0.0
03:45 0.1 92.0 1000.6 1.6 ESE 3.2 0.0
03:50 0.1 92.0 1000.6 0.0 ESE 3.2 0.0
03:55 0.0 92.0 1000.6 0.0 ESE 3.2 0.0
04:00 -0.1 92.0 1000.5 1.6 ESE 3.2 0.0
04:05 -0.2 92.0 1000.7 0.0 S 3.2 0.0
04:10 0.0 92.0 1000.7 0.0 S 3.2 0.0
04:15 0.0 92.0 1000.9 0.0 S 1.6 0.0
04:20 -0.1 92.0 1000.9 0.0 S 0.0 0.0
04:25 -0.2 92.0 1000.9 0.0 S 0.0 0.0
04:30 0.0 92.0 1000.9 1.6 S 1.6 0.0
04:35 0.1 93.0 1000.9 0.0 S 1.6 0.0
04:40 0.2 92.0 1000.7 0.0 S 1.6 0.0
04:45 0.3 93.0 1000.7 1.6 S 1.6 0.0
04:50 0.3 93.0 1000.9 0.0 S 1.6 0.0
04:55 0.3 93.0 1000.8 0.0 S 1.6 0.0
05:00 0.3 93.0 1000.9 0.0 S 1.6 0.0
05:05 0.4 93.0 1000.9 0.0 S 1.6 0.0
05:10 0.6 93.0 1000.8 0.0 S 1.6 0.0
05:15 0.6 93.0 1000.8 0.0 S 1.6 0.0
05:20 0.4 93.0 1001.1 0.0 S 1.6 0.0
05:25 0.4 93.0 1001.0 0.0 S 1.6 0.0
05:30 0.5 93.0 1001.0 0.0 S 1.6 0.0
05:35 0.6 93.0 1001.0 1.6 S 1.6 0.0
05:40 0.6 93.0 1001.1 1.6 S 1.6 0.0
05:45 0.6 93.0 1001.1 0.0 S 1.6 0.0
05:50 0.7 93.0 1001.1 1.6 S 3.2 0.0
05:55 0.8 93.0 1001.1 0.0 S 3.2 0.0
06:00 0.8 93.0 1001.2 1.6 S 3.2 0.0
06:05 0.8 93.0 1001.1 1.6 S 3.2 0.0
06:10 0.8 93.0 1001.2 3.2 SSW 3.2 0.0
06:15 0.8 93.0 1001.2 0.0 SSW 4.8 0.0
06:20 0.8 93.0 1001.2 0.0 SSW 3.2 0.0
06:25 0.8 93.0 1001.3 0.0 SSW 3.2 0.0
06:30 0.8 93.0 1001.4 0.0 SSW 3.2 0.0
06:35 0.9 93.0 1001.4 3.2 SSW 3.2 0.0
06:40 0.8 93.0 1001.4 1.6 SSW 4.8 0.0
06:45 0.8 93.0 1001.5 1.6 SW 4.8 0.0
06:50 0.7 93.0 1001.5 1.6 SW 4.8 0.0
06:55 0.7 93.0 1001.5 1.6 SW 4.8 0.0
07:00 0.8 93.0 1001.6 0.0 SW 4.8 0.0
07:05 0.8 93.0 1001.7 0.0 SW 3.2 0.0
07:10 0.8 93.0 1001.7 0.0 SW 1.6 0.0
07:15 0.8 93.0 1001.8 0.0 SW 1.6 0.0
07:20 0.8 93.0 1001.9 3.2 SW 3.2 0.0
07:25 0.8 93.0 1002.0 1.6 SW 3.2 0.0
07:30 0.9 93.0 1002.2 0.0 SW 3.2 0.0
07:35 0.8 93.0 1002.3 0.0 SW 3.2 0.0
07:40 0.9 93.0 1002.3 0.0 SW 3.2 0.0
07:45 1.0 93.0 1002.4 4.8 SW 4.8 0.0
07:50 1.0 93.0 1002.4 1.6 SW 4.8 0.0
07:55 0.9 93.0 1002.3 1.6 WSW 4.8 0.0
08:00 0.9 93.0 1002.4 0.0 WSW 4.8 0.0
08:05 0.9 93.0 1002.3 0.0 WSW 1.6 0.0
08:10 0.9 93.0 1002.3 1.6 WSW 3.2 0.0
08:15 0.9 93.0 1002.3 1.6 WSW 3.2 0.0
08:20 1.1 93.0 1002.3 0.0 WSW 3.2 0.0
08:25 1.2 93.0 1002.2 1.6 WSW 3.2 0.0
08:30 1.2 93.0 1002.4 1.6 WSW 3.2 0.0
08:35 1.2 93.0 1002.3 1.6 WNW 6.4 0.0
08:40 1.2 93.0 1002.4 1.6 W 6.4 0.0
08:45 1.1 93.0 1002.4 1.6 W 6.4 0.0
08:50 1.1 93.0 1002.4 0.0 W 4.8 0.0
08:55 1.1 93.0 1002.4 1.6 W 3.2 0.0
09:00 1.1 93.0 1002.5 1.6 WNW 4.8 0.0
09:05 0.9 93.0 1002.6 3.2 NNW 4.8 0.0
09:10 1.1 93.0 1002.6 0.0 NNW 4.8 0.0
09:15 1.2 93.0 1002.6 0.0 NNW 3.2 0.0
09:20 1.3 93.0 1002.6 1.6 N 3.2 0.0
09:25 1.4 93.0 1002.6 0.0 NE 3.2 0.0
09:30 1.3 93.0 1002.6 3.2 NE 6.4 0.0
09:35 1.6 93.0 1002.6 1.6 NE 6.4 0.0
09:40 1.7 93.0 1002.6 0.0 NE 4.8 0.0
09:45 1.9 93.0 1002.6 3.2 NE 3.2 0.0
09:50 2.0 93.0 1002.7 3.2 NE 3.2 0.0
09:55 1.9 93.0 1002.9 1.6 NE 3.2 0.0
10:00 1.9 92.0 1002.8 3.2 NE 3.2 0.0
10:05 1.8 92.0 1002.6 1.6 NE 3.2 0.0
10:10 2.1 92.0 1002.6 0.0 NE 3.2 0.0
10:15 1.9 92.0 1002.5 1.6 NE 3.2 0.0
10:20 2.1 92.0 1002.6 3.2 N 4.8 0.0
10:25 2.1 91.0 1002.5 0.0 N 4.8 0.0
10:30 2.3 91.0 1002.4 1.6 N 4.8 0.0
10:35 2.4 91.0 1002.5 3.2 SSW 6.4 0.0
10:40 2.6 90.0 1002.3 1.6 SSW 6.4 0.0
10:45 2.8 90.0 1002.3 3.2 SSW 4.8 0.0
10:50 3.1 88.0 1002.1 0.0 S 4.8 0.0
10:55 3.5 90.0 1002.1 0.0 SSW 4.8 0.0
11:00 3.7 88.0 1002.2 4.8 WNW 4.8 0.0
11:05 3.5 86.0 1002.1 3.2 WNW 6.4 0.0
11:10 3.8 87.0 1001.9 1.6 NW 6.4 0.0
11:15 3.8 86.0 1002.0 0.0 NNW 6.4 0.0
11:20 4.2 86.0 1001.9 4.8 NNW 6.4 0.0
11:25 4.6 85.0 1001.9 4.8 W 6.4 0.0
11:30 4.6 84.0 1001.9 1.6 NNW 8.0 0.0
11:35 4.4 85.0 1001.9 3.2 W 6.4 0.0
11:40 4.5 84.0 1001.7 1.6 W 6.4 0.0
11:45 4.8 83.0 1001.8 1.6 W 4.8 0.0
11:50 4.8 84.0 1001.7 3.2 WNW 4.8 0.0
11:55 4.7 84.0 1001.6 1.6 WNW 3.2 0.0
12:00 4.8 84.0 1001.4 0.0 WNW 3.2 0.0
12:05 5.4 84.0 1001.4 1.6 WNW 3.2 0.0
12:10 5.4 82.0 1001.4 0.0 W 4.8 0.0
12:15 5.7 82.0 1001.3 3.2 W 4.8 0.0
12:20 5.6 81.0 1001.3 1.6 WNW 3.2 0.0
12:25 5.9 80.0 1001.3 4.8 SSE 6.4 0.0
12:30 6.3 79.0 1001.2 3.2 WSW 6.4 0.0
12:35 6.7 79.0 1001.1 1.6 SSW 6.4 0.0
12:40 6.9 76.0 1001.1 4.8 SW 6.4 0.0
12:45 7.4 78.0 1000.9 1.6 W 6.4 0.0
12:50 7.7 77.0 1001.0 3.2 SW 6.4 0.0
12:55 7.5 73.0 1000.8 1.6 WNW 11.3 0.0
13:00 7.4 75.0 1000.9 3.2 SW 11.3 0.0
13:05 7.9 74.0 1000.7 3.2 S 6.4 0.0
13:10 8.7 72.0 1000.7 4.8 WSW 12.9 0.0
13:15 8.8 67.0 1000.6 6.4 W 16.1 0.0
13:20 9.0 66.0 1000.6 4.8 NW 16.1 0.0
13:25 8.9 67.0 1000.6 6.4 W 14.5 0.0
13:30 8.7 64.0 1000.6 9.7 SW 14.5 0.0
13:35 8.6 68.0 1000.5 11.3 WSW 12.9 0.0
13:40 8.7 64.0 1000.4 4.8 NW 14.5 0.0
13:45 8.8 65.0 1000.3 14.5 WSW 22.5 0.0
13:50 8.6 67.0 1000.5 9.7 W 22.5 0.0
13:55 8.6 68.0 1000.4 9.7 SW 19.3 0.0
14:00 8.3 65.0 1000.4 11.3 W 22.5 0.0
14:05 8.2 65.0 1000.5 11.3 W 24.1 0.0
14:10 8.3 67.0 1000.5 17.7 SW 24.1 0.0
14:15 8.4 67.0 1000.5 9.7 WSW 19.3 0.0
14:20 8.4 65.0 1000.4 12.9 WSW 14.5 0.0
14:25 8.3 64.0 1000.5 25.7 WSW 25.7 0.0
14:30 7.8 65.0 1000.3 4.8 WSW 27.4 0.0
14:35 7.7 66.0 1000.5 12.9 W 27.4 0.0
14:40 7.8 66.0 1000.5 22.5 W 30.6 0.0
14:45 7.9 67.0 1000.6 14.5 SW 30.6 0.0
14:50 7.7 66.0 1000.6 8.0 WSW 25.7 0.0
14:55 7.7 66.0 1000.7 6.4 SW 20.9 0.0
15:00 7.7 66.0 1000.8 19.3 WSW 27.4 0.0
15:05 7.4 67.0 1000.9 6.4 WSW 27.4 0.0
15:10 7.3 68.0 1000.9 8.0 WSW 24.1 0.0
15:15 7.3 68.0 1000.9 11.3 W 24.1 0.0
15:20 7.2 67.0 1001.1 11.3 SW 22.5 0.0
15:25 7.1 68.0 1001.0 6.4 WSW 22.5 0.0
15:30 7.2 68.0 1000.9 16.1 WSW 22.5 0.0
15:35 7.1 68.0 1000.9 11.3 WSW 17.7 0.0
15:40 7.2 68.0 1000.9 9.7 WSW 17.7 0.0
15:45 7.1 68.0 1001.1 11.3 W 19.3 0.0
15:50 7.0 69.0 1000.9 8.0 SW 19.3 0.0
15:55 6.7 69.0 1001.1 11.3 SW 16.1 0.0
16:00 6.4 70.0 1001.1 6.4 WSW 17.7 0.0
16:05 6.3 71.0 1001.1 16.1 W 17.7 0.0
16:10 6.1 70.0 1001.1 8.0 SW 17.7 0.0
16:15 6.1 71.0 1001.3 12.9 WSW 17.7 0.0
16:20 5.8 72.0 1001.3 16.1 WSW 17.7 0.0
16:25 5.8 72.0 1001.3 19.3 WSW 20.9 0.0
16:30 5.7 72.0 1001.3 20.9 WSW 22.5 0.0
16:35 5.7 73.0 1001.4 17.7 WSW 24.1 0.0
16:40 5.6 73.0 1001.5 4.8 W 24.1 0.0
16:45 5.4 74.0 1001.5 8.0 SW 20.9 0.0
16:50 5.3 75.0 1001.6 8.0 WSW 24.1 0.0
16:55 5.2 75.0 1001.7 8.0 WSW 24.1 0.0
17:00 4.9 76.0 1001.8 6.4 W 19.3 0.0
17:05 4.9 77.0 1002.1 1.6 WSW 19.3 0.0
17:10 4.8 78.0 1002.2 1.6 WNW 14.5 0.0
17:15 4.9 78.0 1002.3 3.2 W 14.5 0.0
17:20 5.0 77.0 1002.5 1.6 W 6.4 0.0
17:25 5.0 78.0 1002.5 4.8 W 12.9 0.0
17:30 5.1 78.0 1002.6 4.8 W 12.9 0.0
17:35 5.1 78.0 1002.6 4.8 WSW 14.5 0.0
17:40 5.0 78.0 1002.7 3.2 WSW 14.5 0.0
17:45 5.0 78.0 1002.8 8.0 WSW 11.3 0.0
17:50 4.9 78.0 1002.8 1.6 WSW 16.1 0.0
17:55 4.9 78.0 1002.9 6.4 SW 16.1 0.0
18:00 4.9 79.0 1002.9 0.0 W 8.0 0.0
18:05 4.8 79.0 1003.1 1.6 W 6.4 0.0
18:10 4.9 79.0 1003.2 1.6 SW 4.8 0.0
18:15 5.1 78.0 1003.2 0.0 SW 4.8 0.0
18:20 5.0 79.0 1003.2 1.6 SW 4.8 0.0
18:25 4.8 81.0 1003.2 0.0 SW 3.2 0.0
18:30 4.7 81.0 1003.3 0.0 SW 3.2 0.0
18:35 4.7 80.0 1003.4 1.6 SW 3.2 0.0
18:40 4.7 81.0 1003.5 1.6 SW 3.2 0.0
18:45 4.7 81.0 1003.7 1.6 SW 3.2 0.0
18:50 4.7 81.0 1003.8 1.6 SW 3.2 0.0
18:55 4.7 81.0 1003.7 1.6 SW 3.2 0.0
19:00 4.8 81.0 1003.7 3.2 SW 4.8 0.0
19:05 4.8 81.0 1003.9 1.6 SW 4.8 0.0
19:10 4.8 82.0 1003.9 0.0 SW 4.8 0.0
19:15 4.8 82.0 1004.0 0.0 SW 4.8 0.0
19:20 4.8 81.0 1003.9 0.0 SW 4.8 0.0
19:25 4.9 81.0 1003.9 1.6 SW 1.6 0.0
19:30 4.8 81.0 1003.9 0.0 SW 1.6 0.0
19:35 4.8 82.0 1004.0 0.0 SW 1.6 0.0
19:40 4.8 82.0 1004.0 0.0 SW 1.6 0.0
19:45 4.8 82.0 1004.0 0.0 SW 1.6 0.0
19:50 4.8 82.0 1004.1 0.0 SW 1.6 0.0
19:55 4.7 83.0 1004.2 0.0 SW 1.6 0.0
20:00 4.8 84.0 1004.1 1.6 SW 1.6 0.0
20:05 4.8 83.0 1004.2 0.0 SW 3.2 0.0
20:10 4.8 83.0 1004.4 0.0 SW 3.2 0.0
20:15 4.8 84.0 1004.4 0.0 SW 1.6 0.0
20:20 4.8 84.0 1004.6 1.6 SW 3.2 0.0
Màxima 9.1 93.0 1004.6 25.7 WSW 30.6 0.0
Mínima -0.2 64.0 999.7
Total 0.0